Location: *
(53.9450°S, 136.6720°W)
Time: 07:39:36
(UTC+00:00)

Daily predictions for brighter satellites

Satellite Brightness Start Highest point End
(mag) Time Altitude Azimuth Time Altitude Azimuth Time Altitude Azimuth
Cosmos 1943 Rocket 4.1 12:24:07 20° S 12:24:07 20° S 12:26:57 10° SSE
SeaSat 1 4.1 12:18:25 10° SSE 12:20:52 29° SSE 12:20:52 29° SSE
Cosmos 2369 4.5 12:26:04 50° ESE 12:26:04 50° ESE 12:30:33 10° SE
ATLAS 5 CENTAUR R/B 3.7 12:08:07 10° WSW 12:28:33 89° NW 12:33:30 10° NE
Cosmos 1655 Rocket 4.4 12:34:59 57° S 12:34:59 57° S 12:39:59 10° S
Lacrosse 5 2.5 12:53:39 55° E 12:53:39 55° E 12:57:49 10° ESE
ATLAS 2AS CENTAUR R/B 3.5 12:51:14 33° SSW 12:52:47 38° SSE 12:58:39 10° E
Cosmos 1953 4.1 12:55:12 29° SE 12:55:12 29° SE 12:57:35 10° SSE
Okean-O 3.8 13:01:07 10° NNE 13:09:23 14° S 13:10:01 10° S
Feng Yun 1-1 Rocket 4.2 13:01:05 10° NNE 13:06:33 81° ESE 13:12:03 10° SSW
Cosmos 1844 Rocket 4.5 13:05:25 12° SSW 13:09:45 27° SE 13:14:32 10° E
Cosmos 1980 Rocket 2.8 13:08:09 40° NNE 13:09:55 56° ENE 13:15:34 10° SE
Cosmos 1697 Rocket 2.6 13:09:56 79° N 13:10:15 84° ENE 13:15:59 10° SSE
Cosmos 2369 Rocket 4.2 13:11:23 15° SSW 13:12:02 15° SSW 13:15:20 10° SSE
MSX 3.9 13:06:47 10° NNE 13:12:34 80° ESE 13:18:26 10° SSW
Okean 3 Rocket 4.5 13:09:02 10° S 13:13:26 49° ESE 13:17:49 10° NNE
Cosmos 2278 3.6 13:15:21 72° SW 13:15:21 72° SW 13:21:05 10° SSE
Cosmos 2263 Rocket 2.3 13:13:11 38° SSW 13:15:26 73° SE 13:21:03 10° NE
CZ-2C R/B 2.4 13:10:48 10° NNE 13:15:34 80° ESE 13:20:35 10° SSW
Cosmos 1626 3.5 13:15:23 37° SE 13:15:58 39° ESE 13:19:33 10° NE
NOSS 3-1 (C) 3.9 13:19:20 44° N 13:19:20 44° N 13:23:34 10° NNE
Cosmos 1656 3.7 13:18:20 63° SSW 13:18:20 63° SSW 13:23:29 10° SSE
IDEFIX/ARIANE 42P 4.2 13:22:41 22° SSW 13:22:41 22° SSW 13:24:29 10° SSW
Lacrosse 4 Rocket 1.9 13:19:25 58° ENE 13:19:25 58° ENE 13:23:27 10° SE
NOSS 3-1 (A) 3.3 13:21:14 65° WNW 13:21:37 66° NW 13:27:25 10° NNE
Cosmos 1867 4.4 13:20:46 32° N 13:22:50 47° ENE 13:28:02 10° SE
Intercosmos 25 Rocket 3.9 13:19:07 10° S 13:24:27 64° ESE 13:28:01 10° NNE
ATLAS 5 CENTAUR R/B 3.0 13:25:47 39° SW 13:26:35 41° SSW 13:32:02 10° SE
Cosmos 158 Rocket 3.7 13:27:09 60° SSW 13:28:04 88° ESE 13:33:03 10° NNE
SL-16 R/B 3.9 13:24:16 10° NNE 13:29:11 31° ENE 13:34:09 10° SE
Cosmos 2298 Rocket 4.5 13:30:30 23° N 13:33:46 60° ENE 13:39:04 10° SSE
Cosmos 1470 3.4 13:34:46 50° SSE 13:34:46 50° SSE 13:37:46 10° SSE
SJ-12 4.1 13:35:17 10° NNE 13:39:29 77° ESE 13:43:45 10° SSW
Nadezhda 2 Rocket 4.5 13:33:17 10° N 13:39:46 90° SSW 13:46:16 10° S
Cosmos 2322 Rocket 3.7 13:36:22 10° N 13:41:27 36° ENE 13:46:36 10° SE
Cosmos 1812 Rocket 3.4 13:41:15 75° NW 13:41:35 83° W 13:46:03 10° S
Cosmos 1048 Rocket 4.2 13:36:59 12° SSW 13:42:00 75° ESE 13:47:16 10° NNE
SL-16 R/B 3.0 13:37:21 10° S 13:43:05 38° WSW 13:43:18 38° WSW
Cosmos 2278 Rocket 4.2 13:39:31 10° SSW 13:44:02 23° SSE 13:48:31 10° E
Cosmos 2315 Rocket 4.1 13:39:29 10° SSW 13:45:42 51° W 13:51:50 10° NNW
Uosat 12 SS-18 rocket 4.1 13:51:29 56° NNW 13:51:29 56° NNW 13:55:27 10° NNE
Cosmos 1269 Rocket 4.2 13:49:15 10° SSW 13:54:38 72° ESE 13:59:57 10° NE
SJ 16-02 2.8 13:51:11 10° N 13:55:21 39° ENE 13:59:34 10° SE
Cosmos 2266 Rocket 4.3 13:54:56 37° WNW 13:56:54 47° WSW 14:03:12 10° S
SeaSat 1 3.8 13:56:28 10° SSE 14:00:22 23° SW 14:00:38 23° SW
Cosmos 1328 3.7 13:57:33 10° SSW 14:01:36 70° W 14:05:36 10° N
Cosmos 1244 Rocket 4.5 13:56:04 10° NNW 14:02:27 79° WSW 14:08:57 10° S
Cosmos 967 Rocket 4.4 13:59:52 30° NW 14:03:12 81° SW 14:09:31 10° SE
CSL-04 Rocket 4.1 13:57:55 10° NNE 14:03:15 63° ESE 14:08:35 10° SSW
Cosmos 1943 Rocket 4.3 14:05:39 11° SSW 14:08:26 14° S 14:11:29 10° SSE
Cosmos 2369 4.4 14:08:02 32° WSW 14:09:23 36° SW 14:14:44 10° SSE
Ariane Rocket 3.7 14:04:52 10° NE 14:09:54 56° ESE 14:14:59 10° S
BREEZE-M DEB (TANK) 3.4 14:12:31 22° N 14:12:31 22° N 14:15:36 10° NE
SL-24 DEB 4.2 14:08:38 10° S 14:13:22 87° E 14:18:04 10° N
Cosmos 1745 Rocket 4.3 14:07:50 10° N 14:14:13 75° E 14:20:41 10° SSE
Nadezhda 1 Rocket 3.9 14:08:43 10° SSW 14:15:07 81° W 14:21:20 10° N
Cosmos 1898 Rocket 3.8 14:13:17 32° WNW 14:15:28 50° SW 14:20:45 10° SSE
Cosmos 2292 Rocket 4.1 14:11:38 10° N 14:16:15 84° E 14:22:36 10° SSE
Meteor 1-11 4.2 14:10:28 10° SSW 14:16:21 74° W 14:22:09 10° N
SMAP 3.1 14:12:38 10° NNE 14:17:21 83° ESE 14:22:08 10° SSW
Cosmos 1766 Rocket 3.5 14:13:03 10° SSW 14:17:39 75° W 14:22:09 10° N
Cosmos 1937 Rocket 3.5 14:15:43 25° NW 14:18:40 59° WSW 14:23:55 10° SSE
Genesis I 3.8 14:16:44 24° SSW 14:18:46 53° SE 14:22:29 10° ENE
NOSS 2-3 (D) 4.5 14:13:57 18° SW 14:19:24 69° NW 14:25:03 10° NNE
BREEZE M DEB (TANK) 4.3 14:18:55 15° NW 14:24:24 38° N 14:27:22 10° E
Cosmos-2242 3.2 14:21:32 10° N 14:25:52 75° E 14:30:18 10° SSE
Cosmos 990 Rocket 4.2 14:23:34 22° NW 14:26:52 53° WSW 14:32:06 10° SSE
MOS 1-B Rocket 4.3 14:19:57 10° NNE 14:27:00 84° ESE 14:33:08 10° SSW
USA 234 3.7 14:21:30 10° ESE 14:28:05 62° NNE 14:34:39 10° NW
Cosmos 1125 Rocket 4.2 14:23:03 10° N 14:28:12 57° ENE 14:33:23 10° SSE
Cosmos 1500 Rocket 4.3 14:25:21 10° S 14:29:43 56° ESE 14:34:03 10° NNE
Cosmos 1953 3.6 14:30:57 24° SW 14:30:57 24° SW 14:33:44 10° S
Cosmos 372 Rocket 4.4 14:26:56 10° NNW 14:32:00 64° ENE 14:37:08 10° SSE
CZ-4 R/B 1.6 14:28:14 10° NNE 14:32:13 72° ESE 14:36:11 10° S
Cosmos 494 Rocket 4.1 14:27:11 10° SSW 14:32:30 79° ESE 14:37:42 10° NNE
Meteor 1-28 Rocket 3.4 14:29:26 10° SSE 14:33:12 73° ENE 14:36:55 10° N
Cosmos 1703 3.2 14:29:31 10° SSW 14:33:27 59° W 14:37:21 10° N
FENGYUN 3A 4.2 14:29:05 10° NNE 14:34:28 63° ESE 14:39:56 10° S
Cosmos 2360 4.5 14:31:04 20° WNW 14:34:53 51° SW 14:40:34 10° SSE
Lacrosse 5 2.0 14:32:52 25° W 14:35:48 65° S 14:40:58 10° ESE
Cosmos 2285 Rocket 4.5 14:30:08 10° SW 14:35:59 38° WNW 14:41:49 10° NNW
Cosmos 1484 Rocket 3.1 14:34:20 10° N 14:38:05 43° W 14:41:59 10° SSW
Cosmos 1076 Rocket 4.3 14:35:27 10° SSW 14:39:09 28° W 14:42:49 10° NNW
Cosmos 2151 2.9 14:35:49 10° SSW 14:40:10 89° W 14:44:26 10° N
YAOGAN 1 3.0 14:36:07 10° NNE 14:40:28 66° ESE 14:44:53 10° S
Okean-O 3.9 14:38:53 10° NW 14:47:02 - SSW 14:41:29 21° WNW
ATLAS 2AS CENTAUR R/B 2.6 14:38:41 12° SW 14:44:25 79° SE 14:50:58 10° NE
USA 161 1.2 14:43:43 10° S 14:46:24 77° WSW 14:49:15 10° NNW
ALOS 2.4 14:45:47 10° NNE 14:50:31 81° ESE 14:55:19 10° SSW
Cosmos 1626 3.3 14:50:16 21° WSW 14:51:05 22° W 14:54:04 10° NW
Cosmos 2360 Rocket 3.2 14:45:54 10° N 14:51:24 52° ENE 14:56:59 10° SE
Cosmos 1980 Rocket 2.8 14:49:57 16° WNW 14:54:12 39° SW 14:59:38 10° SSE
Cosmos 1844 Rocket 2.7 14:48:43 10° SSW 14:54:23 90° W 15:00:02 10° NNE
CZ-2C R/B 3.7 14:51:14 10° NW 14:54:30 18° W 14:57:52 10° SW
Cosmos 1709 Rocket 4.3 14:48:21 10° N 14:54:45 77° E 15:01:09 10° SSE
Cosmos 1697 Rocket 3.7 14:51:42 18° W 14:54:54 29° SW 14:59:50 10° SSE
ASTEX 1 4.2 14:50:22 10° SSE 14:55:23 57° E 15:00:18 10° N
GP-B 3.2 14:51:05 10° NNW 14:55:32 57° W 15:00:03 10° S
Lacrosse 4 Rocket 2.4 14:55:46 18° W 14:58:11 30° SW 15:02:01 10° SSE
Cosmos 2369 Rocket 4.4 14:55:07 10° SSW 14:58:31 16° SSE 15:01:56 10° SE
Resurs 01 Rocket 4.4 14:56:23 10° E 14:58:43 14° SE 15:01:04 10° SSE
Cosmos 2263 Rocket 3.1 14:54:57 13° SW 14:58:53 26° WNW 15:03:24 10° NNW
BREEZE-M DEB 4.2 14:58:52 11° NW 14:59:30 12° NNW 15:00:36 10° N
H-2A R/B 4.0 14:58:06 10° NE 15:01:51 45° ESE 15:05:35 10° S
Cosmos 1842 Rocket 3.9 14:58:57 10° N 15:03:22 72° E 15:07:48 10° SSE
Cosmos 1867 3.8 15:01:29 12° WNW 15:06:28 51° SW 15:11:47 10° SE
CORIOLIS 4.4 15:03:16 10° N 15:08:33 49° W 15:13:55 10° SSW
Meteor 2-1 Rocket 4.4 15:02:50 10° N 15:08:43 86° ENE 15:14:45 10° SSE
Aureole 2 Rocket 1.9 15:07:02 10° NW 15:09:47 55° WSW 15:12:32 10° SSE
Cosmos 2221 3.8 15:07:02 10° NNE 15:11:18 48° E 15:15:38 10° SSE
ATLAS 5 CENTAUR R/B 3.3 15:07:20 11° WSW 15:12:37 33° S 15:17:31 10° ESE
SL-16 R/B 2.3 15:07:19 10° NW 15:12:59 63° SW 15:18:43 10° SSE
Cosmos 1408 Rocket 4.4 15:09:27 10° SSW 15:13:23 29° W 15:17:15 10° NNW
Cosmos 2058 3.5 15:11:47 10° SSW 15:15:37 36° W 15:19:26 10° NNW
Cosmos 1844 3.7 15:10:42 10° SW 15:16:30 80° WNW 15:22:08 10° NNE
NOSS 3-4 (A) 4.2 15:10:30 10° SW 15:17:56 61° SSE 15:24:44 10° ENE
NOSS 3-4 (C) 4.2 15:10:36 10° SW 15:18:02 61° SSE 15:24:50 10° ENE
IRS-1A Rocket 4.4 15:12:52 10° N 15:18:45 71° WNW 15:24:46 10° SSW
Cosmos 1743 Rocket 4.0 15:16:03 10° SSW 15:20:24 44° W 15:24:42 10° NNW
Cosmos 1726 2.1 15:17:56 10° NNW 15:21:41 80° W 15:25:30 10° S
Cosmos 1300 3.6 15:18:35 10° N 15:22:23 55° E 15:26:15 10° SSE
COSMOS 2428 4.2 15:19:45 10° N 15:25:05 43° ENE 15:30:30 10° SE
SL-16 R/B 4.3 15:22:46 10° SSW 15:25:07 12° SW 15:27:28 10° WSW
Cosmos 2322 Rocket 2.4 15:19:46 10° NW 15:25:20 55° SW 15:30:59 10° SSE
ERS-2 4.5 15:22:51 10° ENE 15:25:55 24° ESE 15:29:01 10° S
Cosmos 2251 Rocket 3.5 15:22:18 10° SSW 15:27:37 70° WNW 15:32:53 10° NNE
FREGAT/IRIS 3.9 15:25:11 10° NE 15:28:06 43° ESE 15:31:04 10° S
Meteor 2-10 4.2 15:23:30 10° N 15:28:37 79° E 15:33:56 10° SSE
Cosmos 1908 3.5 15:25:07 10° NNW 15:28:52 47° WSW 15:32:41 10° S
Cosmos 2278 Rocket 2.6 15:23:28 10° SSW 15:29:13 67° SE 15:34:53 10° NE
USA 116 4.3 15:25:23 10° SSE 15:30:42 77° WSW 15:35:31 10° NNW
SJ 16-02 2.1 15:29:54 10° WNW 15:34:02 34° SW 15:38:11 10° SSE
SKYMED 2 3.7 15:29:37 10° SSE 15:34:06 88° E 15:38:31 10° NNW
SL-08 ROCKET BODY 4.5 15:29:04 10° NNW 15:35:14 76° WSW 15:41:34 10° S
Cosmos 1805 Rocket 3.6 15:36:27 10° SSW 15:41:02 82° W 15:45:33 10° N
